Weather History for Newport News, VA

Change the Weather History Date:

Sunday, November 18, 2012

  Actual Average Record
Temperature  
Mean Temperature 54 °F -  
Max Temperature 57 °F 63 °F 78 °F (1953)
Min Temperature 50 °F 41 °F 24 °F (1997)
Degree Days  
Heating Degree Days 12    
Growing Degree Days 4 (Base 50)    
Moisture  
Dew Point 43 °F    
Average Humidity 70    
Maximum Humidity 77    
Minimum Humidity 60    
Precipitation  
Precipitation 0.00 in - - ()
Sea Level Pressure  
Sea Level Pressure 30.45 in    
Wind  
Wind Speed 14 mph (NNE)    
Max Wind Speed 20 mph    
Max Gust Speed 29 mph    
Visibility 10 miles    
Events      
Averages and records for this station are not official NWS values.
T = Trace of Precipitation, MM = Missing Value Source: NWS Daily Summary

Daily Weather History Graph

Daily Weather History Graph

Search for Another Location

Airport:

Trip Planner

Search our weather history database for the weather conditions in past years. The results will help you decide how hot, cold, wet, or windy it might be!

Date:

Astronomy

Nov. 18, 2012 Rise Set
Actual Time 6:48 AM EST 4:53 PM EST
Civil Twilight 6:20 AM EST 5:21 PM EST
Nautical Twilight 5:48 AM EST 5:53 PM EST
Astronomical Twilight 5:17 AM EST 6:24 PM EST
Moon 11:15 AM EST (11/18) 10:08 PM EST (11/18)
Length of Visible Light 11h 01m
Length of Day
10h 05m
Waxing Crescent, 30% of the Moon is Illuminated
Nov 18
Waxing Crescent
Nov 20
First Quarter
Nov 28
Full
Dec 6
Last Quarter
Dec 13
New

Hourly Weather History & Observations

Time (EST) Temp. Dew Point Humidity Pressure Visibility Wind Dir Wind Speed Gust Speed Precip Events Conditions
12:54 AM 50.0 °F 43.0 °F 77% 30.48 in 10.0 mi NE 12.7 mph 19.6 mph N/A   Overcast
1:11 AM 50.0 °F 42.8 °F 76% 30.47 in 10.0 mi NE 12.7 mph 24.2 mph N/A   Mostly Cloudy
1:54 AM 50.0 °F 43.0 °F 77% 30.48 in 10.0 mi NE 13.8 mph 21.9 mph N/A   Mostly Cloudy
2:54 AM 50.0 °F 43.0 °F 77% 30.48 in 10.0 mi NE 13.8 mph 20.7 mph N/A   Mostly Cloudy
3:03 AM 50.0 °F 42.8 °F 76% 30.47 in 10.0 mi NE 12.7 mph 20.7 mph N/A   Scattered Clouds
3:54 AM 50.0 °F 43.0 °F 77% 30.47 in 10.0 mi NE 17.3 mph 23.0 mph N/A   Clear
4:54 AM 50.0 °F 43.0 °F 77% 30.47 in 10.0 mi NE 12.7 mph 23.0 mph N/A   Partly Cloudy
5:54 AM 50.0 °F 43.0 °F 77% 30.47 in 10.0 mi NNE 17.3 mph 26.5 mph N/A   Clear
6:54 AM 50.0 °F 43.0 °F 77% 30.48 in 10.0 mi NNE 12.7 mph 20.7 mph N/A   Clear
7:54 AM 50.0 °F 43.0 °F 77% 30.49 in 10.0 mi NNE 10.4 mph - N/A   Clear
8:54 AM 52.0 °F 44.1 °F 74% 30.49 in 10.0 mi NNE 15.0 mph 20.7 mph N/A   Clear
9:54 AM 55.0 °F 44.1 °F 67% 30.50 in 10.0 mi NE 16.1 mph 25.3 mph N/A   Clear
10:54 AM 55.9 °F 44.1 °F 64% 30.48 in 10.0 mi NNE 16.1 mph 23.0 mph N/A   Clear
11:54 AM 57.9 °F 45.0 °F 62% 30.46 in 10.0 mi NNE 12.7 mph 20.7 mph N/A   Clear
12:54 PM 57.9 °F 44.1 °F 60% 30.44 in 10.0 mi NE 10.4 mph 18.4 mph N/A   Partly Cloudy
1:35 PM 57.2 °F 44.6 °F 63% 30.43 in 10.0 mi NNE 16.1 mph 26.5 mph N/A   Overcast
1:54 PM 57.9 °F 44.1 °F 60% 30.43 in 10.0 mi NE 11.5 mph 23.0 mph N/A   Overcast
2:54 PM 57.0 °F 44.1 °F 62% 30.43 in 10.0 mi NE 12.7 mph 20.7 mph N/A   Overcast
3:54 PM 55.9 °F 44.1 °F 64% 30.43 in 10.0 mi NNE 12.7 mph 24.2 mph N/A   Overcast
4:54 PM 55.0 °F 44.1 °F 67% 30.42 in 10.0 mi NNE 12.7 mph 20.7 mph N/A   Overcast
5:54 PM 55.0 °F 44.1 °F 67% 30.42 in 10.0 mi NNE 11.5 mph 19.6 mph N/A   Overcast
6:54 PM 54.0 °F 44.1 °F 69% 30.42 in 10.0 mi NNE 19.6 mph 28.8 mph N/A   Overcast
7:17 PM 53.6 °F 44.6 °F 72% 30.42 in 10.0 mi NNE 16.1 mph 23.0 mph N/A   Overcast
7:54 PM 53.1 °F 43.0 °F 69% 30.43 in 10.0 mi NNE 15.0 mph 24.2 mph N/A   Overcast
8:54 PM 51.8 °F 42.8 °F 71% 30.42 in 10.0 mi NNE 15.0 mph 24.2 mph N/A   Mostly Cloudy
9:25 PM 51.8 °F 42.8 °F 71% 30.41 in 10.0 mi NNE 11.5 mph 21.9 mph N/A   Mostly Cloudy
9:54 PM 52.0 °F 43.0 °F 71% 30.41 in 10.0 mi NNE 13.8 mph 23.0 mph N/A   Overcast
10:54 PM 51.1 °F 42.1 °F 71% 30.40 in 10.0 mi NNE 13.8 mph 24.2 mph N/A   Overcast
11:03 PM 51.8 °F 42.8 °F 71% 30.39 in 10.0 mi NNE 16.1 mph 19.6 mph N/A   Mostly Cloudy
11:54 PM 51.1 °F 42.1 °F 71% 30.38 in 10.0 mi NNE 12.7 mph 19.6 mph N/A   Overcast